Selinsgrove, PA

3:44 PM EST on November 24, 2017 (GMT -0500)
Penn Valley

Weather History for KSEG - November, 2012

Change the Weather History Date:

Wednesday, November 21, 2012

  Actual Average (KIPT) Record (KIPT)
Temperature  
Mean Temperature 40 °F -  
Max Temperature 54 °F 46 °F 79 °F (1900)
Min Temperature 26 °F 30 °F 12 °F (1951)
Degree Days  
Heating Degree Days 25    
Moisture  
Dew Point 29 °F    
Average Humidity 82    
Maximum Humidity 96    
Minimum Humidity 41    
Precipitation  
Precipitation 0.01 in - - ()
Sea Level Pressure  
Sea Level Pressure 30.23 in    
Wind  
Wind Speed 0 mph (NW)    
Max Wind Speed 4 mph    
Max Gust Speed -    
Visibility 6 miles    
Events      
Averages and records for this station are not official NWS values.
T = Trace of Precipitation, MM = Missing Value Source: NWS Daily Summary

Daily Weather History Graph

Daily Weather History Graph

Search for Another Location

Airport or City:

Trip Planner

Search our weather history database for the weather conditions in past years. The results will help you decide how hot, cold, wet, or windy it might be!

Date:

Astronomy

Nov. 21, 2012 Rise Set
Actual Time 7:02 AM EST 4:44 PM EST
Civil Twilight 6:32 AM EST 5:14 PM EST
Nautical Twilight 5:58 AM EST 5:47 PM EST
Astronomical Twilight 5:25 AM EST 6:20 PM EST
Moon 1:02 PM EST (11/21) 12:16 AM EST (11/21)
Length of Visible Light 10h 42m
Length of Day
9h 42m
First Quarter, 61% of the Moon is Illuminated
Nov 21
First Quarter
Nov 28
Full
Dec 6
Last Quarter
Dec 13
New
Dec 20
First Quarter

Hourly Weather History & Observations

Time (EST) Temp. Windchill Dew Point Humidity Pressure Visibility Wind Dir Wind Speed Gust Speed Precip Events Conditions
12:53 AM 30.9 °F - 28.9 °F 92% 30.17 in 4.0 mi Calm Calm - N/A   Clear
1:53 AM 28.9 °F - 27.0 °F 92% 30.17 in 3.0 mi Calm Calm - N/A   Clear
2:53 AM 28.0 °F - 26.1 °F 92% 30.19 in 3.0 mi Calm Calm - N/A   Clear
3:53 AM 28.9 °F - 27.0 °F 92% 30.19 in 3.0 mi Calm Calm - N/A   Clear
4:53 AM 28.0 °F - 26.1 °F 92% 30.20 in 3.0 mi Calm Calm - N/A   Clear
5:53 AM 27.0 °F 23.0 °F 26.1 °F 96% 30.22 in 3.0 mi NW 3.5 mph - N/A   Clear
6:28 AM 26.6 °F - 24.8 °F 93% 30.21 in 2.5 mi Calm Calm - N/A   Clear
6:43 AM 26.6 °F - 24.8 °F 93% 30.22 in 3.0 mi Calm Calm - N/A   Clear
6:53 AM 26.1 °F - 25.0 °F 96% 30.24 in 3.0 mi Calm Calm - N/A   Clear
7:11 AM 26.6 °F - 24.8 °F 93% 30.23 in 2.0 mi Calm Calm - N/A   Clear
7:53 AM 26.1 °F - 25.0 °F 96% 30.25 in 2.0 mi Calm Calm - N/A   Clear
8:53 AM 33.1 °F - 30.9 °F 92% 30.26 in 2.5 mi Calm Calm - 0.01 in   Clear
9:06 AM 33.8 °F - 32.0 °F 93% 30.25 in 3.0 mi Calm Calm - N/A   Clear
9:53 AM 37.9 °F - 33.1 °F 83% 30.26 in 6.0 mi Calm Calm - N/A   Haze
10:53 AM 44.1 °F - 35.1 °F 71% 30.25 in 7.0 mi Calm Calm - N/A   Clear
11:53 AM 48.0 °F - 34.0 °F 58% 30.23 in 8.0 mi Calm Calm - N/A   Clear
12:53 PM 51.1 °F - 32.0 °F 48% 30.21 in 10.0 mi Calm Calm - N/A   Clear
1:53 PM 53.1 °F - 30.9 °F 43% 30.20 in 10.0 mi Calm Calm - N/A   Clear
2:53 PM 54.0 °F - 30.9 °F 41% 30.19 in 10.0 mi Calm Calm - N/A   Clear
3:53 PM 52.0 °F - 34.0 °F 50% 30.19 in 10.0 mi Calm Calm - N/A   Clear
5:53 PM 36.0 °F - 30.9 °F 82% 30.23 in 9.0 mi Calm Calm - N/A   Clear
6:53 PM 34.0 °F - 28.9 °F 82% 30.24 in 10.0 mi Calm Calm - N/A   Clear
7:53 PM 32.0 °F - 28.9 °F 88% 30.25 in 10.0 mi Calm Calm - N/A   Clear
8:53 PM 30.9 °F - 28.0 °F 89% 30.26 in 10.0 mi Calm Calm - N/A   Clear
9:53 PM 28.9 °F - 27.0 °F 92% 30.26 in 9.0 mi Calm Calm - N/A   Clear
10:53 PM 28.9 °F - 26.1 °F 89% 30.25 in 7.0 mi Calm Calm - N/A   Clear
11:53 PM 28.0 °F - 26.1 °F 92% 30.27 in 7.0 mi Calm Calm - N/A   Clear